Home   Weather   Boulder   Past weeks
Flag for USA

Past Weather in Boulder, Colorado, USA — Yesterday and Last 2 Weeks

Now
77 °F

Partly sunny.


Feels Like: 79 °F
Forecast: 82 / 60 °F
Wind: 3 mph from Northwest

Location: Broomfield / Jeffco

Current Time: Jul 22, 2019 at 3:16:03 pm

Latest Report: Jul 22, 2019 at 1:47 pm


Visibility: 10 mi

Pressure: 30.36 "Hg (25.21 "Hg at 1623m altitude)

Humidity: 51%

Dew Point: 57 °F

Location of BoulderLocation

Past Weather in Boulder — Graph

°F

Boulder Temperature Yesterday

Maximum temperature yesterday: 84 °F (at 4:47 pm)
Minimum temperature yesterday: 59 °F (at 3:12 am)
Average temperature yesterday: 68 °F

High & Low Weather Summary for the Past Weeks

 TemperatureHumidityPressure
High99 °F (Jul 19, 2:45 pm)94% (Jul 21, 10:54 pm)30.44 "Hg (Jul 21, 10:54 pm)
Low59 °F (Jul 8, 5:50 am)9% (Jul 18, 3:47 pm)29.92 "Hg (Jul 19, 6:48 pm)
Average73 °F45%30.15 "Hg
* Reported Jul 7 2:47 pm — Jul 22 1:47 pm, Boulder. Weather by CustomWeather, © 2019

Note: Actual official high and low records may vary slightly from our data, if they occured in-between our weather recording intervals... More about our weather records

Advertising

Boulder Weather History for the Previous 24 Hours

Scroll right to see more
 ConditionsComfort  
Time TempWeatherWind HumidityBarometerVisibility
1:47 pm
Mon, Jul 22
77 °FPartly sunny.3 mph51%30.36 "Hg10 mi
1:35 pm79 °FPartly sunny.8 mph48%30.36 "Hg10 mi
12:47 pm75 °FPartly sunny.3 mph54%30.37 "Hg10 mi
11:45 am75 °FPartly sunny.No wind57%30.40 "Hg10 mi
11:35 am73 °FPartly sunny.3 mph61%30.40 "Hg10 mi
10:50 am72 °FPartly sunny.3 mph69%30.41 "Hg10 mi
9:50 am70 °FBroken clouds.7 mph73%30.41 "Hg8 mi
8:50 am66 °FPartly sunny.No wind88%30.41 "Hg6 mi
7:50 am63 °FPartly sunny.No wind94%30.43 "Hg4 mi
6:50 am63 °FBroken clouds.8 mph94%30.40 "Hg10 mi
5:54 am63 °FScattered clouds.9 mph94%30.38 "Hg10 mi
5:30 am63 °FPassing clouds.6 mph94%30.38 "Hg10 mi
5:12 am63 °FOvercast.6 mph94%30.38 "Hg10 mi
4:53 am63 °FOvercast.6 mph94%30.38 "Hg10 mi
4:29 am63 °FOvercast.6 mph94%30.38 "Hg10 mi
4:12 am64 °FMostly cloudy.6 mph88%30.38 "Hg10 mi
3:54 am64 °FPassing clouds.3 mph88%30.38 "Hg10 mi
3:30 am63 °FClear.3 mph94%30.37 "Hg10 mi
3:12 am63 °FClear.3 mph94%30.38 "Hg10 mi
2:54 am63 °FPassing clouds.No wind94%30.38 "Hg10 mi
2:30 am63 °FMostly cloudy.No wind94%30.39 "Hg10 mi
2:12 am64 °FPassing clouds.No wind88%30.39 "Hg10 mi
1:54 am64 °FClear.5 mph88%30.38 "Hg10 mi
1:30 am64 °FClear.13 mph88%30.38 "Hg10 mi
1:12 am64 °FClear.12 mph88%30.38 "Hg10 mi
12:53 am64 °FClear.12 mph88%30.39 "Hg10 mi
12:30 am63 °FClear.12 mph94%30.39 "Hg10 mi
12:12 am61 °FPassing clouds.9 mph94%30.39 "Hg10 mi
11:54 pm
Sun, Jul 21
63 °FPassing clouds.6 mph94%30.39 "Hg10 mi
11:30 pm63 °FMostly cloudy.10 mph94%30.38 "Hg10 mi
11:12 pm63 °FLight rain. Overcast.12 mph94%30.39 "Hg10 mi
10:54 pm64 °FThundershowers. Mostly cloudy.8 mph94%30.38 "Hg10 mi
10:30 pm66 °FHeavy rain. Overcast.No wind88%30.38 "Hg5 mi
10:12 pm70 °FLight rain. Overcast.9 mph73%30.37 "Hg10 mi
9:46 pm72 °FThunderstorms. Partly cloudy.8 mph61%30.36 "Hg20 mi
8:45 pm73 °FThunderstorms. Partly cloudy.17 mph57%30.32 "Hg25 mi
7:47 pm77 °FScattered showers. Broken clouds.12 mph51%30.31 "Hg25 mi
6:47 pm79 °FScattered showers. Broken clouds.14 mph48%30.29 "Hg25 mi
5:50 pm81 °FThunderstorms. Broken clouds.12 mph39%30.26 "Hg25 mi
4:47 pm84 °FBroken clouds.8 mph37%30.27 "Hg25 mi
3:47 pm81 °FBroken clouds.9 mph45%30.26 "Hg25 mi
Weather by CustomWeather, © 2019

See weather overview